Weather History for KGOV - November, 2013

Change the Weather History Date:

Saturday, November 30, 2013

  Actual Average (KHTL) Record (KHTL)
Temperature  
Mean Temperature 27 °F 29 °F  
Max Temperature 35 °F 36 °F 61 °F (1998)
Min Temperature 19 °F 23 °F -2 °F (1936)
Degree Days  
Heating Degree Days 38 36  
Month to date heating degree days 905  
Since 1 July heating degree days 1883  
Moisture  
Dew Point 24 °F    
Average Humidity 80    
Maximum Humidity 95    
Minimum Humidity 71    
Precipitation  
Precipitation 0.00 in 0.07 in 0.66 in (1934)
Month to date precipitation 2.32  
Year to date precipitation 27.10  
Snow  
Snow 0.00 in 0.40 in 4.20 in (1940)
Month to date snowfall 8.5  
Since 1 July snowfall 9.1  
Snow Depth -    
Sea Level Pressure  
Sea Level Pressure 30.17 in    
Wind  
Wind Speed 7 mph (South)    
Max Wind Speed 14 mph    
Max Gust Speed 24 mph    
Visibility 10 miles    
Events      
T = Trace of Precipitation, MM = Missing Value Source: NWS Daily Summary

Daily Weather History Graph

Daily Weather History Graph

Search for Another Location

Airport or City:

Trip Planner

Search our weather history database for the weather conditions in past years. The results will help you decide how hot, cold, wet, or windy it might be!

Date:

Astronomy

Nov. 30, 2013 Rise Set
Actual Time 7:54 AM EST 5:00 PM EST
Civil Twilight 7:22 AM EST 5:33 PM EST
Nautical Twilight 6:45 AM EST 6:09 PM EST
Astronomical Twilight 6:10 AM EST 6:44 PM EST
Moon 4:59 AM EST 3:28 PM EST
Length of Visible Light 10h 10m
Length of Day
9h 05m
Waning Crescent, 7% of the Moon is Illuminated
Nov 30
Waning Crescent
Dec 2
New
Dec 9
First Quarter
Dec 17
Full
Dec 25
Last Quarter

Hourly Weather History & Observations

Time (EST) Temp. Windchill Dew Point Humidity Pressure Visibility Wind Dir Wind Speed Gust Speed Precip Events Conditions
12:15 AM 20.3 °F 10.6 °F 18.5 °F 93% 30.45 in 7.0 mi SE 8.1 mph - N/A   Clear
12:35 AM 19.8 °F 10.8 °F 18.0 °F 93% 30.44 in 7.0 mi ESE 6.9 mph - N/A   Clear
12:55 AM 19.4 °F 11.5 °F 18.1 °F 95% 30.43 in 7.0 mi SE 5.8 mph - N/A   Mostly Cloudy
1:15 AM 20.3 °F 12.5 °F 18.5 °F 93% 30.42 in 7.0 mi ESE 5.8 mph - N/A   Scattered Clouds
1:35 AM 19.8 °F 9.9 °F 17.8 °F 92% 30.40 in 7.0 mi SE 8.1 mph - N/A   Scattered Clouds
1:55 AM 20.7 °F 13.0 °F 17.8 °F 89% 30.40 in 10.0 mi SE 5.8 mph - N/A   Clear
2:15 AM 21.6 °F 15.3 °F 17.8 °F 85% 30.40 in 10.0 mi SSE 4.6 mph - N/A   Clear
2:35 AM 21.9 °F 15.7 °F 17.8 °F 84% 30.39 in 10.0 mi SSE 4.6 mph - N/A   Scattered Clouds
2:54 AM 22.6 °F 15.3 °F 18.3 °F 83% 30.38 in 10.0 mi SSE 5.8 mph - N/A   Clear
3:15 AM 24.1 °F 14.4 °F 19.0 °F 81% 30.38 in 10.0 mi SSE 9.2 mph - N/A   Clear
3:35 AM 25.3 °F 16.0 °F 19.9 °F 80% 30.36 in 10.0 mi SSE 9.2 mph - N/A   Mostly Cloudy
3:54 AM 25.5 °F 16.9 °F 19.4 °F 78% 30.36 in 10.0 mi South 8.1 mph 17.3 mph N/A   Overcast
4:15 AM 25.5 °F 16.2 °F 19.4 °F 78% 30.35 in 10.0 mi South 9.2 mph - N/A   Overcast
4:35 AM 27.3 °F 16.6 °F 21.0 °F 77% 30.33 in 10.0 mi South 12.7 mph 16.1 mph N/A   Overcast
4:55 AM 27.7 °F 19.6 °F 21.2 °F 77% 30.33 in 10.0 mi SSW 8.1 mph - N/A   Overcast
5:15 AM 27.0 °F 18.7 °F 20.5 °F 77% 30.33 in 10.0 mi South 8.1 mph - N/A   Overcast
5:35 AM 25.5 °F 18.7 °F 19.4 °F 78% 30.32 in 10.0 mi South 5.8 mph - N/A   Overcast
5:55 AM 25.5 °F 14.9 °F 19.9 °F 79% 30.31 in 10.0 mi South 11.5 mph - N/A   Overcast
6:15 AM 25.5 °F 15.5 °F 19.9 °F 79% 30.30 in 10.0 mi South 10.4 mph - N/A   Overcast
6:35 AM 25.5 °F 14.9 °F 20.1 °F 80% 30.29 in 10.0 mi South 11.5 mph 17.3 mph N/A   Overcast
6:55 AM 25.5 °F 16.2 °F 20.3 °F 81% 30.28 in 10.0 mi South 9.2 mph - N/A   Overcast
7:15 AM 25.5 °F 14.3 °F 20.3 °F 81% 30.27 in 10.0 mi South 12.7 mph - N/A   Overcast
7:35 AM 27.3 °F 16.6 °F 21.7 °F 80% 30.26 in 10.0 mi South 12.7 mph 24.2 mph N/A   Overcast
7:55 AM 25.7 °F 15.1 °F 20.3 °F 80% 30.25 in 10.0 mi South 11.5 mph 20.7 mph N/A   Mostly Cloudy
8:15 AM 25.7 °F 16.4 °F 20.3 °F 80% 30.25 in 10.0 mi South 9.2 mph - N/A   Mostly Cloudy
8:35 AM 28.0 °F 20.0 °F 22.1 °F 78% 30.24 in 10.0 mi South 8.1 mph - N/A   Mostly Cloudy
8:55 AM 28.0 °F 20.0 °F 22.1 °F 78% 30.23 in 10.0 mi South 8.1 mph 17.3 mph N/A   Mostly Cloudy
9:15 AM 28.0 °F 19.3 °F 22.1 °F 78% 30.23 in 10.0 mi South 9.2 mph 17.3 mph N/A   Scattered Clouds
9:34 AM 28.0 °F 20.0 °F 22.1 °F 78% 30.21 in 10.0 mi South 8.1 mph 16.1 mph N/A   Scattered Clouds
9:55 AM 28.0 °F 18.1 °F 21.9 °F 78% 30.20 in 10.0 mi South 11.5 mph - N/A   Clear
10:15 AM 28.0 °F 20.0 °F 21.9 °F 78% 30.19 in 10.0 mi South 8.1 mph 17.3 mph N/A   Clear
10:35 AM 28.2 °F 21.0 °F 21.7 °F 77% 30.18 in 10.0 mi South 6.9 mph 10.4 mph N/A   Clear
10:55 AM 28.4 °F 19.1 °F 21.9 °F 77% 30.17 in 10.0 mi South 10.4 mph 16.1 mph N/A   Clear
11:15 AM 30.6 °F 23.8 °F 23.9 °F 76% 30.15 in 10.0 mi SSW 6.9 mph - N/A   Clear
11:35 AM 30.7 °F 22.6 °F 23.9 °F 76% 30.14 in 10.0 mi SSW 9.2 mph - N/A   Clear
11:55 AM 32.7 °F 23.9 °F 26.1 °F 76% 30.13 in 7.0 mi South 11.5 mph - N/A   Clear
12:15 PM 32.9 °F 25.3 °F 25.7 °F 75% 30.12 in 10.0 mi South 9.2 mph - N/A   Clear
12:35 PM 32.9 °F 25.9 °F 25.5 °F 74% 30.11 in 10.0 mi South 8.1 mph - N/A   Clear
12:55 PM 32.9 °F 24.7 °F 25.3 °F 74% 30.09 in 10.0 mi SSW 10.4 mph - N/A   Scattered Clouds
1:15 PM 33.3 °F 27.1 °F 25.7 °F 74% 30.09 in 10.0 mi SSW 6.9 mph - N/A   Mostly Cloudy
1:35 PM 35.1 °F 27.4 °F 26.8 °F 72% 30.08 in 10.0 mi South 10.4 mph - N/A   Mostly Cloudy
1:55 PM 35.2 °F 26.2 °F 26.8 °F 71% 30.07 in 10.0 mi South 13.8 mph - N/A   Overcast
2:15 PM 35.2 °F 29.5 °F 26.6 °F 71% 30.06 in 10.0 mi South 6.9 mph - N/A   Overcast
2:35 PM 35.2 °F 29.5 °F 26.8 °F 71% 30.05 in 10.0 mi SSW 6.9 mph - N/A   Overcast
2:55 PM 35.2 °F 32.4 °F 27.1 °F 72% 30.04 in 10.0 mi South 3.5 mph - N/A   Overcast
3:15 PM 35.2 °F 32.4 °F 27.0 °F 72% 30.04 in 10.0 mi South 3.5 mph - N/A   Overcast
3:35 PM 35.2 °F 28.8 °F 27.3 °F 73% 30.03 in 10.0 mi South 8.1 mph - N/A   Overcast
3:55 PM 35.2 °F 30.3 °F 27.5 °F 73% 30.03 in 10.0 mi South 5.8 mph - N/A   Overcast
4:15 PM 35.2 °F 30.3 °F 27.5 °F 73% 30.03 in 10.0 mi South 5.8 mph - N/A   Overcast
4:35 PM 35.2 °F 32.4 °F 27.9 °F 74% 30.02 in 10.0 mi SSE 3.5 mph - N/A   Overcast
4:55 PM 35.2 °F 32.4 °F 28.2 °F 76% 30.02 in 10.0 mi SSE 3.5 mph - N/A   Overcast
5:15 PM 35.2 °F 32.4 °F 28.2 °F 76% 30.01 in 10.0 mi South 3.5 mph - N/A   Overcast
5:35 PM 35.2 °F 31.2 °F 28.0 °F 75% 30.01 in 10.0 mi South 4.6 mph - N/A   Overcast
5:55 PM 35.2 °F 30.3 °F 28.0 °F 75% 30.01 in 10.0 mi South 5.8 mph - N/A   Overcast
6:15 PM 35.2 °F 32.4 °F 28.0 °F 75% 30.01 in 10.0 mi South 3.5 mph - N/A   Overcast
6:35 PM 35.2 °F 32.4 °F 27.5 °F 73% 30.02 in 10.0 mi West 3.5 mph - N/A   Overcast
6:55 PM 35.2 °F - 28.4 °F 76% 30.03 in 10.0 mi Calm Calm - N/A   Overcast
7:15 PM 35.2 °F - 28.4 °F 76% 30.03 in 10.0 mi Calm Calm - N/A   Overcast
7:35 PM 33.6 °F - 28.4 °F 81% 30.03 in 10.0 mi Calm Calm - N/A   Overcast
7:55 PM 33.6 °F - 28.9 °F 83% 30.03 in 10.0 mi Calm Calm - N/A   Overcast
8:15 PM 32.9 °F - 29.7 °F 88% 30.03 in 10.0 mi Calm Calm - N/A   Overcast
8:35 PM 32.9 °F - 29.3 °F 87% 30.03 in 10.0 mi Calm Calm - N/A   Overcast
8:54 PM 33.6 °F 30.6 °F 29.5 °F 85% 30.03 in 10.0 mi South 3.5 mph - N/A   Overcast
9:15 PM 34.9 °F 32.0 °F 30.6 °F 84% 30.02 in 10.0 mi South 3.5 mph - N/A   Overcast
9:35 PM 35.1 °F - 30.7 °F 84% 30.01 in 10.0 mi Calm Calm - N/A   Overcast
9:55 PM 34.0 °F - 29.8 °F 85% 30.01 in 10.0 mi Calm Calm - N/A   Overcast
10:15 PM 34.7 °F - 31.3 °F 87% 30.01 in 10.0 mi Calm Calm - N/A   Overcast
10:35 PM 32.9 °F - 30.2 °F 90% 30.01 in 10.0 mi Calm Calm - N/A   Overcast
10:55 PM 33.3 °F - 31.5 °F 93% 30.01 in 10.0 mi Calm Calm - N/A   Overcast
11:15 PM 32.9 °F - 30.9 °F 92% 30.01 in 10.0 mi Calm Calm - N/A   Overcast
11:35 PM 32.9 °F 29.8 °F 30.9 °F 92% 30.01 in 10.0 mi NNW 3.5 mph - N/A   Overcast
11:55 PM 34.0 °F - 32.0 °F 92% 30.01 in 7.0 mi Calm Calm - N/A   Overcast